Find GPS III SV03

NORAD ID: 45854 Int'l Des: 2020-041 Owner: SMC Country: US Constellation: GPS operational
MEOCIRCULARGNSS

リアルタイム位置

3D地球を読み込み中...

GPS III SV03について

説明を読み込み中...

次回通過

Passes for default location (London). Set your location on the main map for personalized predictions.

高度履歴

Loading altitude history...

軌道要素

1 45854U 20041A 26121.11961544 -.00000103 00000-0 00000+0 0 9990
2 45854 56.6410 30.7696 0062352 205.0030 336.6556 2.00559919 43099
Epoch: May 1, 2026 • Age: 13 hours

現在のステータス

高度 20021.3 km
速度 3.90 km/s
衛星直下点 -16.74°S, 130.8°E
打ち上げ日 Jun 30, 2020
運用期間 5.8 years
タイプ navigation

技術仕様

分類 Payload
質量 4400.00 kg
乾燥質量 2160.00 kg
総質量 4400.00 kg
長さ 3.40 m
直径 1.80 m
スパン 14.00 m
形状 Box + 2 pan
製造者 LMSSD
バスタイプ A2100
フェーズステータス In Orbit
所有者/国 SMC/US

Most Searched